Location: Newark
(44.2003°N, 3.2583°E)
Time: 02:48:11
(UTC+00:00)

Vanguard 2 - All Passes

Search period start: 16 October 2019 00:00
Search period end: 26 October 2019 00:00
Orbit: 554 x 2937 km, 32.9° (Epoch: 15 October)

Date Brightness Start Highest point End Pass type
(mag) Time Alt. Az. Time Alt. Az. Time Alt. Az.
16 Oct - 01:56:41 10° W 02:08:28 22° SW 02:19:37 10° S visible
16 Oct - 17:37:00 10° SSW 17:44:49 28° SE 17:55:51 10° E visible
16 Oct - 19:42:52 10° SW 19:53:50 49° SSE 20:09:40 10° E visible
16 Oct - 21:51:15 10° WSW 22:04:46 53° S 22:21:45 10° ESE visible
17 Oct - 00:01:38 10° W 00:15:58 38° SSW 00:31:05 10° SSE visible
17 Oct - 02:16:37 10° WSW 02:25:47 17° SW 02:34:36 10° SSW visible
17 Oct - 17:53:57 10° SSW 18:02:11 33° SSE 18:14:20 10° E visible
17 Oct - 20:00:30 10° WSW 20:11:37 52° S 20:27:42 10° ESE visible
17 Oct - 22:09:11 10° W 22:22:39 50° SSW 22:39:23 10° SE visible
18 Oct - 00:20:03 10° W 00:33:35 32° SSW 00:47:47 10° SSE visible
18 Oct - 02:39:10 10° WSW 02:43:03 11° SW 02:46:53 10° SW visible
18 Oct - 16:08:09 10° SSE 16:12:10 14° SE 16:17:01 10° ESE daylight
18 Oct - 18:11:09 10° SW 18:19:42 38° SSE 18:32:38 10° E visible
18 Oct - 20:18:13 10° WSW 20:29:27 53° S 20:45:40 10° ESE visible
18 Oct - 22:27:11 10° W 22:40:29 45° SSW 22:56:49 10° SE visible
19 Oct - 00:38:47 10° W 00:51:08 26° SW 01:04:03 10° SSE night (unlit)
19 Oct - 16:23:57 10° S 16:29:21 19° SE 16:36:31 10° E daylight
19 Oct - 18:28:33 10° SW 18:37:18 43° SSE 18:50:49 10° E visible
19 Oct - 20:36:01 10° WSW 20:47:20 52° S 21:03:31 10° ESE visible
19 Oct - 22:45:18 10° W 22:58:17 40° SSW 23:14:01 10° SE visible
20 Oct - 00:58:03 10° W 01:08:38 20° SW 01:19:37 10° S night (unlit)
20 Oct - 16:40:33 10° SSW 16:46:38 24° SE 16:55:19 10° E daylight
20 Oct - 18:46:05 10° WSW 18:55:00 46° SSE 19:08:55 10° E visible
20 Oct - 20:53:53 10° WSW 21:05:13 49° S 21:21:15 10° ESE visible
20 Oct - 23:03:33 10° W 23:16:03 34° SSW 23:30:55 10° SSE visible
21 Oct - 01:18:28 10° WSW 01:26:05 15° SW 01:33:55 10° SSW night (unlit)
21 Oct - 16:57:32 10° SSW 17:04:03 30° SSE 17:13:46 10° E daylight
21 Oct - 19:03:44 10° WSW 19:12:47 48° S 19:26:56 10° ESE visible
21 Oct - 21:11:48 10° W 21:23:05 45° SSW 21:38:49 10° SE visible
21 Oct - 23:22:03 10° W 23:33:44 29° SSW 23:47:24 10° SSE visible
22 Oct - 15:12:42 10° SSE 15:14:27 11° SE 15:16:23 10° ESE daylight
22 Oct - 17:14:47 10° SW 17:21:34 35° SSE 17:32:02 10° E visible
22 Oct - 19:21:28 10° WSW 19:30:36 48° S 19:44:51 10° ESE visible
22 Oct - 21:29:49 10° W 21:40:57 41° SSW 21:56:09 10° SE visible
22 Oct - 23:40:57 10° WSW 23:51:24 23° SW 00:03:21 10° S visible
23 Oct - 15:27:56 10° S 15:31:42 16° SE 15:36:27 10° ESE daylight
23 Oct - 17:32:12 10° SW 17:39:11 39° SSE 17:50:11 10° E visible
23 Oct - 19:39:16 10° WSW 19:48:27 47° S 20:02:40 10° ESE visible
23 Oct - 21:47:59 10° W 21:58:47 35° SSW 22:13:13 10° SE visible
24 Oct - 00:00:37 10° WSW 00:09:01 17° SW 00:18:21 10° S night (unlit)
24 Oct - 15:44:28 10° SSW 15:49:03 21° SE 15:55:17 10° ESE daylight
24 Oct - 17:49:46 10° SW 17:56:53 42° SSE 18:08:15 10° ESE visible
24 Oct - 19:57:07 10° WSW 20:06:20 44° S 20:20:20 10° SE visible
24 Oct - 22:06:19 10° W 22:16:35 29° SSW 22:29:55 10° SSE visible
25 Oct - 00:22:33 10° SW 00:26:39 11° SW 00:30:56 10° SSW night (unlit)
25 Oct - 16:01:28 10° SSW 16:06:30 25° SSE 16:13:44 10° ESE daylight
25 Oct - 18:07:27 10° WSW 18:14:39 43° S 18:26:14 10° ESE visible
25 Oct - 20:15:05 10° WSW 20:24:12 39° SSW 20:37:48 10° SE visible
25 Oct - 22:25:00 10° WSW 22:34:22 24° SSW 22:46:06 10° SSE visible
